Hourly Data Report for October 18, 2016

All times are specified in Local Standard Time (LST). Add 1 hour to adjust for Daylight Saving Time where and when it is observed.

RESOLUTE BAY A
NUNAVUT

74°43'01.000" N
94°58'10.000" W
67.70 m
2403498
71924
YRB

Download Data

Hourly Data (October 2016)
Hourly Data Report for October 18, 2016
Temp Definition
°C
Dew Point Temp Definition
°C
Rel Hum Definition
%
Wind Dir Definition
10's deg

Wind Spd Definition
km/h
Visibility Definition
km
Stn Press Definition
kPa
Hmdx Definition


Wind Chill Definition


Weather Definition


TIME
00:00 Legend Double Dagger -13.6 -15.6 85 22 14 24.1 100.79   -21 Snow
01:00 Legend Double Dagger -12.9 -14.8 86 22 15 8.1 100.80   -20 Snow
02:00 Legend Double Dagger -12.5 -14.4 86 22 16 9.7 100.82   -20 Snow
03:00 Legend Double Dagger -12.7 -14.6 86 21 14 11.3 100.83   -20 Snow
04:00 Legend Double Dagger -12.5 -14.4 86 21 14 8.1 100.86   -20 Snow
05:00 Legend Double Dagger -13.5 -15.5 85 21 14 16.1 100.88   -21 Snow
06:00 Legend Double Dagger -12.8 -14.7 86 22 14 16.1 100.91   -20 Snow
07:00 Legend Double Dagger -12.1 -14.0 86 21 16 11.3 100.91   -20 Snow
08:00 Legend Double Dagger -11.9 -13.8 86 22 16 20.9 100.93   -19 Snow
09:00 Legend Double Dagger -11.6 -13.4 87 23 17 24.1 100.94   -19 Snow
10:00 Legend Double Dagger -12.9 -14.8 86 27 7 24.1 100.96   -17 Snow
11:00 Legend Double Dagger -11.4 -13.2 87 23 13 24.1 100.98   -18 Snow
12:00 Legend Double Dagger -11.2 -13.0 87 25 21 24.1 100.98   -20 Mostly Cloudy
13:00 Legend Double Dagger -11.0 -12.8 87 24 21 24.1 101.01   -19 Snow
14:00 Legend Double Dagger -12.2 -14.1 86 24 13 24.1 101.01   -19 Snow
15:00 Legend Double Dagger -11.9 -13.8 86 23 8 24.1 101.01   -17 Snow
16:00 Legend Double Dagger -11.1 -12.9 87 21 16 24.1 101.00   -18 LegendNANA
17:00 Legend Double Dagger -10.7 -12.5 87 20 16 24.1 100.98   -18 LegendNANA
18:00 Legend Double Dagger -10.4 -12.0 88 21 28 19.3 100.96   -20 Snow
19:00 Legend Double Dagger -10.9 -12.7 87 20 27 24.1 100.94   -20 Snow
20:00 Legend Double Dagger -11.1 -13.0 86 18 18 24.1 100.91   -19 Snow
21:00 Legend Double Dagger -10.9 -12.7 87 21 18 24.1 100.87   -19 Snow
22:00 Legend Double Dagger -11.3 -13.1 87 23 14 24.1 100.83   -18 Snow
23:00 Legend Double Dagger -12.0 -13.7 87 22 9 24.1 100.81   -17 LegendNANA

Notes on Data Quality.

Legend

  • E = Estimated
  • M = Missing
  • NA = Not Available
  • ‡ = Partner data that is not subject to review by the National Climate Archives
Date modified: